Chickering American River Reserve, California Weather observations

Data are for 10 minute period ending at time listed.
 Day   Time   Solar   Ave.   Ave.  Ave.  Vector  Max.   Baro.   Total    
  of    of     Rad.   Air    Rel.  Wind   Wind   Wind  Press.  Precip.   
Year   Day            Temp.  Hum.  Speed  Dir.   Gust                    
2015   (PST)  Kw/m2    F      %     mph   deg.    mph    mb.     in.     
-------------------------------------------------------------------------
 117    3:10   0.00   42.8    56    1.5   250     2.9   820.9    0.00 
 117    3:20   0.00   42.6    54    1.5   242     4.4   820.9    0.00 
 117    3:30   0.00   42.3    57    1.2   270     3.1   821.0    0.00 
 117    3:40   0.00   42.0    56    1.0   111     6.6   821.1    0.00 
 117    3:50   0.00   43.4    52    2.9    73    10.4   821.0    0.00 
 117    4:00   0.00   44.8    50    1.3    33     4.5   821.1    0.00 
 117    4:10   0.00   43.6    55    1.3   130     5.6   821.1    0.00 
 117    4:20   0.00   43.0    58    1.2    68     3.5   821.2    0.00 
 117    4:30   0.00   41.6    62    1.5    78     5.5   821.3    0.00 
 117    4:40   0.00   40.6    64    1.7    39     5.9   821.3    0.00 
 117    4:50   0.00   40.2    63    1.9    60     5.4   821.2    0.00 
 117    5:00   0.00   40.6    61    2.0    52     4.9   821.1    0.00 
 117    5:10   0.00   42.0    56    2.9    59     9.1   821.1    0.00 
 117    5:20   0.00   43.3    53    3.1    57    11.2   821.1    0.00 
 117    5:30   0.00   44.2    51    2.4    86    10.5   821.0    0.00 
 117    5:40   0.01   44.3    50    2.9    65    10.4   821.1    0.00 
 117    5:50   0.01   44.3    50    2.3    58     6.9   821.3    0.00 
 117    6:00   0.02   44.7    49    2.5    86    10.6   821.3    0.00 
 117    6:10   0.03   45.0    50    2.2   171    10.1   821.1    0.00 
 117    6:20   0.06   46.7    43    3.0   120     8.0   821.2    0.00 
 117    6:30   0.19   47.2    42    4.7    55    13.9   821.4    0.00 
 117    6:40   0.17   47.6    42    4.3    86    15.2   821.4    0.00 
 117    6:50   0.19   47.9    41    5.4    71    16.0   821.3    0.00 
 117    7:00   0.29   48.5    40    5.0    79    17.2   821.4    0.00 
 117    7:10   0.36   49.4    39    4.6    82    12.1   821.5    0.00 
 117    7:20   0.40   50.7    39    3.6    89    12.8   821.5    0.00 
 117    7:30   0.43   51.4    38    4.1    87    11.5   821.6    0.00 
 117    7:40   0.47   51.6    38    4.1    81    12.0   821.6    0.00 
 117    7:50   0.51   52.1    40    3.1    46    13.7   821.7    0.00 
 117    8:00   0.54   52.3    40    4.4    38    11.8   821.8    0.00 
 117    8:10   0.57   52.5    40    4.3    56    13.9   821.8    0.00 
 117    8:20   0.61   52.6    40    5.0    54    11.8   821.8    0.00 
 117    8:30   0.64   53.1    41    4.6    47    16.7   821.6    0.00 
 117    8:40   0.67   54.2    40    3.4    51     8.8   821.5    0.00 
 117    8:50   0.70   55.1    39    2.6    68     8.9   821.5    0.00 
 117    9:00   0.73   56.6    37    2.2    86     9.1   821.4    0.00 
 117    9:10   0.76   57.0    37    3.8    73     9.6   821.4    0.00 
 117    9:20   0.79   56.9    36    3.6    88    10.5   821.4    0.00 
 117    9:30   0.81   57.0    35    2.9    68     8.6   821.3    0.00 
 117    9:40   0.84   57.6    34    3.7   100    11.8   821.3    0.00 
 117    9:50   0.86   57.0    35    3.5   112    12.5   821.2    0.00 
 117   10:00   0.89   56.7    35    4.5    86    19.6   821.2    0.00 
 117   10:10   0.91   57.4    35    3.9    83    11.0   821.3    0.00 
 117   10:20   0.93   56.9    35    4.6    85    13.4   821.5    0.00 
 117   10:30   0.94   56.7    34    4.6    71    12.0   821.4    0.00 
 117   10:40   0.95   56.9    34    5.0    86    16.3   821.4    0.00 
 117   10:50   0.97   58.1    36    4.1    82    15.7   821.4    0.00 
 117   11:00   0.97   58.5    34    4.3    74    12.3   821.4    0.00 
 117   11:10   0.98   58.9    35    3.4    84    12.4   821.4    0.00 
 117   11:20   0.99   59.3    33    4.4    87    13.1   821.3    0.00 
 117   11:30   0.99   58.8    33    4.1    86    14.9   821.3    0.00 
 117   11:40   1.00   59.1    34    3.9    83    12.6   821.3    0.00 
 117   11:50   1.00   60.0    34    3.8   101    17.7   821.3    0.00 
 117   12:00   1.00   59.9    33    4.2    93    15.8   821.3    0.00 
 117   12:10   1.00   60.0    32    4.4    98    17.0   821.2    0.00 
 117   12:20   1.00   60.3    33    3.5    92    11.2   821.1    0.00 
 117   12:30   1.00   60.7    32    4.1    80    18.2   821.1    0.00 
 117   12:40   0.99   60.4    31    4.0    91    11.1   821.0    0.00 
 117   12:50   0.98   60.9    32    3.8    81    14.0   820.9    0.00 
 117   13:00   0.98   61.5    31    3.4    91     9.6   820.8    0.00 
 117   13:10   0.97   62.3    31    3.7   129    10.4   820.8    0.00 
 117   13:20   0.95   62.5    31    4.1   113    12.4   820.8    0.00 
 117   13:30   0.94   63.0    31    4.0   178    10.4   820.8    0.00 
 117   13:40   0.93   63.1    31    3.0   103     9.7   820.8    0.00 
 117   13:50   0.91   63.2    30    4.2    90     9.9   820.8    0.00 
 117   14:00   0.89   62.7    30    3.1   138    10.4   820.7    0.00 
 117   14:10   0.87   64.1    30    2.4   122    11.3   820.6    0.00 
 117   14:20   0.85   64.2    30    3.4    87     9.9   820.5    0.00 
 117   14:30   0.82   64.3    29    2.6    95    10.3   820.5    0.00 
 117   14:40   0.80   65.3    30    1.9   142     6.4   820.4    0.00 
 117   14:50   0.77   66.1    29    1.8   140     7.9   820.4    0.00 
 117   15:00   0.74   65.4    28    3.0    88     8.5   820.3    0.00 
 117   15:10   0.71   65.3    30    2.5    90     9.6   820.2    0.00 
 117   15:20   0.68   64.9    30    1.7    62     7.2   820.2    0.00 
 117   15:30   0.65   65.8    29    2.0    94     9.6   820.2    0.00 
 117   15:40   0.61   65.4    28    2.1   172     5.6   820.1    0.00 
 117   15:50   0.58   65.3    29    1.5   154     5.6   820.0    0.00 
 117   16:00   0.55   65.1    29    1.6   112     5.7   819.9    0.00 
 117   16:10   0.51   64.1    30    2.5    69     6.7   819.9    0.00 
 117   16:20   0.17   62.5    30    2.1    51     6.8   819.9    0.00 
 117   16:30   0.05   62.0    32    1.0   160     3.9   819.9    0.00 
 117   16:40   0.06   62.2    29    1.9    66     6.9   819.8    0.00 
 117   16:50   0.21   61.7    31    2.1   101     6.3   819.9    0.00 
 117   17:00   0.13   61.4    31    1.3    78     6.6   819.9    0.00 
 117   17:10   0.07   60.0    32    0.9    49     3.3   819.9    0.00 
 117   17:20   0.03   59.6    32    1.5    73     4.7   820.0    0.00 
 117   17:30   0.02   58.8    33    2.1    56     5.3   819.9    0.00 
 117   17:40   0.01   58.6    34    1.2    24     5.0   820.0    0.00 
 117   17:50   0.01   56.8    39    0.4   348     2.4   820.1    0.00 
 117   18:00   0.01   55.7    41    0.6   220     2.8   820.2    0.00 
 117   18:10   0.01   55.6    43    0.6   205     3.3   820.2    0.00 
 117   18:20   0.00   53.6    56    0.8   220     1.8   820.4    0.00 
 117   18:30   0.00   51.6    61    1.0   229     2.0   820.4    0.00 
 117   18:40   0.00   49.8    65    1.3   217     2.3   820.4    0.00 
 117   18:50   0.00   48.3    66    1.3   230     2.2   820.5    0.00 
 117   19:00   0.00   47.1    67    1.9   208     3.0   820.7    0.00 
 117   19:10   0.00   45.7    69    2.3   210     3.6   820.7    0.00 
 117   19:20   0.00   44.9    68    2.1   210     3.5   820.8    0.00 
 117   19:30   0.00   44.3    66    1.9   212     2.9   820.8    0.00 
 117   19:40   0.00   44.0    65    1.6   210     2.9   820.9    0.00 
 117   19:50   0.00   43.7    66    1.6   197     3.4   820.9    0.00 
 117   20:00   0.00   42.9    69    1.6   198     3.2   820.9    0.00 
 117   20:10   0.00   42.4    68    1.4   214     2.6   820.9    0.00 
 117   20:20   0.00   42.7    63    0.9   201     3.4   820.8    0.00 
 117   20:30   0.00   43.6    59    1.1   190     3.5   820.8    0.00 
 117   20:40   0.00   43.7    57    0.8   199     3.4   820.9    0.00 
 117   20:50   0.00   45.0    49    0.8   198     2.4   821.0    0.00 
 117   21:00   0.00   47.6    44    0.8   138     5.5   821.1    0.00 
 117   21:10   0.00   48.7    43    1.4    74     4.9   821.1    0.00 
 117   21:20   0.00   44.9    54    1.2   205     2.8   821.1    0.00 
 117   21:30   0.00   44.9    48    1.1   181     5.7   821.0    0.00 
 117   21:40   0.00   44.5    52    1.1   230     2.2   821.0    0.00 
 117   21:50   0.00   42.4    58    1.9   220     3.9   821.1    0.00 
 117   22:00   0.00   41.8    57    2.1   221     4.4   821.1    0.00 
 117   22:10   0.00   41.3    59    2.2   238     3.8   821.1    0.00 
 117   22:20   0.00   41.1    60    2.5   217     3.7   821.1    0.00 
 117   22:30   0.00   40.8    60    2.2   216     3.4   821.1    0.00 
 117   22:40   0.00   40.1    61    2.3   213     3.5   821.2    0.00 
 117   22:50   0.00   39.7    62    2.5   213     3.6   821.1    0.00 
 117   23:00   0.00   39.5    61    2.2   217     3.6   821.1    0.00 
 117   23:10   0.00   39.4    60    2.1   209     3.0   821.0    0.00 
 117   23:20   0.00   38.9    63    2.7   212     3.9   821.0    0.00 
 117   23:30   0.00   38.6    64    2.2   214     3.1   821.0    0.00 
 117   23:40   0.00   38.7    61    2.4   222     3.8   820.9    0.00 
 117   23:50   0.00   39.1    60    2.5   212     3.7   820.9    0.00 
 118    0:00   0.00   38.6    62    2.8   208     4.1   820.8    0.00 
 118    0:10   0.00   38.9    61    2.6   222     3.9   820.7    0.00 
 118    0:20   0.00   38.0    66    2.5   194     3.9   820.7    0.00 
 118    0:30   0.00   37.1    69    2.2   191     3.5   820.7    0.00 
 118    0:40   0.00   36.6    69    2.4   203     3.9   820.7    0.00 
 118    0:50   0.00   36.8    68    2.7   216     3.9   820.5    0.00 
 118    1:00   0.00   37.1    65    2.8   215     4.4   820.5    0.00 
 118    1:10   0.00   36.6    69    2.4   196     3.7   820.4    0.00 
 118    1:20   0.00   36.0    68    2.5   200     3.6   820.4    0.00 
 118    1:30   0.00   35.7    69    2.2   198     3.3   820.4    0.00 
 118    1:40   0.00   35.5    69    2.5   202     3.5   820.4    0.00 
 118    1:50   0.00   35.5    69    2.2   198     3.9   820.4    0.00 
 118    2:00   0.00   35.2    71    2.2   197     3.4   820.3    0.00 
 118    2:10   0.00   35.1    73    2.1   196     3.2   820.3    0.00 
 118    2:20   0.00   34.9    73    2.8   203     3.9   820.3    0.00 
 118    2:30   0.00   35.3    69    2.8   204     3.9   820.2    0.00 
 118    2:40   0.00   35.3    70    2.5   196     3.8   820.3    0.00 
 118    2:50   0.00   35.0    71    2.1   193     3.4   820.4    0.00 
 118    3:00   0.00   34.6    72    2.3   198     3.9   820.4    0.00 

Return to Chickering American River Reserve graphs page.


Western Regional Climate Center,wrcc@dri.edu